カタログに戻る

CZ-6A DEB

運用中SSO
NORAD 54424·DEBRIS·🇨🇳 China

打ち上げ Nov 11, 2022 から Taiyuan Satellite Launch Center

Loading…

次のパス (今後24時間)

TLE

最新Source: Space-Track

元期: Sep 14, 2026, 12:52 UTC

1 54424U 22151EY  26257.53664758  .00000017  00000-0  39011-4 0  9992
2 54424  98.9753 251.2360 0105850 137.1955 223.7513 13.99865518195857

AllMySatでCZ-6A DEBをリアルタイム追跡

Download on the App Store